Location: Kawakawa
(35.3830°S, 174.0670°E)
Time: 09:23:14
(UTC+13:00)

Transit 4A - All Passes

Search period start: 06 December 2019 00:00
Search period end: 16 December 2019 00:00
Orbit: 870 x 975 km, 66.8° (Epoch: 05 December)

Date Brightness Start Highest point End Pass type
(mag) Time Alt. Az. Time Alt. Az. Time Alt. Az.
06 Dec - 05:43:59 10° NE 05:47:35 17° ENE 05:51:14 10° ESE daylight
06 Dec - 07:27:22 10° NW 07:33:15 64° WSW 07:39:22 10° SSE daylight
06 Dec - 09:19:20 10° SW 09:20:54 11° SW 09:22:28 10° SSW daylight
06 Dec - 14:48:49 10° SSE 14:52:10 14° SE 14:55:30 10° ESE daylight
06 Dec - 16:33:05 10° SSW 16:39:32 80° ESE 16:45:57 10° NNE daylight
06 Dec - 18:21:54 10° WSW 18:25:07 14° WNW 18:28:18 10° NW daylight
07 Dec - 05:51:48 10° NNE 05:56:38 27° ENE 06:01:36 10° SE daylight
07 Dec - 07:37:03 10° NW 07:42:41 42° WSW 07:48:31 10° SSE daylight
07 Dec - 14:57:15 10° S 15:01:55 21° SE 15:06:34 10° E daylight
07 Dec - 16:42:27 10° SSW 16:48:51 70° WNW 16:55:12 10° NNE daylight
08 Dec - 06:00:16 10° N 06:05:46 41° ENE 06:11:28 10° SE daylight
08 Dec - 07:47:06 10° WNW 07:52:14 29° SW 07:57:32 10° S daylight
08 Dec - 15:06:02 10° S 15:11:34 29° SE 15:17:03 10° ENE daylight
08 Dec - 16:52:01 10° SW 16:58:06 46° WNW 17:04:08 10° N daylight
09 Dec - 06:09:07 10° NNW 06:14:58 65° ENE 06:21:03 10° SSE daylight
09 Dec - 07:57:30 10° W 08:01:52 20° SW 08:06:19 10° S daylight
09 Dec - 15:15:03 10° SSW 15:21:06 42° ESE 15:27:08 10° NE daylight
09 Dec - 17:01:48 10° SW 17:07:15 30° WNW 17:12:41 10° NNW daylight
10 Dec - 04:36:45 10° ENE 04:38:50 12° E 04:40:55 10° E visible
10 Dec - 06:18:19 10° NNW 06:24:16 83° WSW 06:30:27 10° SSE daylight
10 Dec - 08:08:32 10° WSW 08:11:36 14° SW 08:14:45 10° SSW daylight
10 Dec - 13:40:56 10° SSE 13:42:53 11° SE 13:44:50 10° ESE daylight
10 Dec - 15:24:11 10° SSW 15:30:33 62° ESE 15:36:53 10° NE daylight
10 Dec - 17:11:59 10° WSW 17:16:21 19° WNW 17:20:42 10° NNW daylight
11 Dec - 04:43:41 10° NNE 04:47:51 20° ENE 04:52:05 10° ESE visible
11 Dec - 06:27:48 10° NW 06:33:38 55° WSW 06:39:42 10° SSE daylight
11 Dec - 13:48:47 10° S 13:52:42 16° SE 13:56:37 10° E daylight
11 Dec - 15:33:28 10° SSW 15:39:56 89° WNW 15:46:20 10° NNE daylight
11 Dec - 17:23:16 10° W 17:25:22 12° W 17:27:29 10° WNW daylight
12 Dec - 04:51:47 10° NNE 04:56:55 31° ENE 05:02:13 10° SE visible
12 Dec - 06:37:37 10° WNW 06:43:07 37° SW 06:48:48 10° S daylight
12 Dec - 13:57:24 10° S 14:02:26 23° SE 14:07:25 10° ENE daylight
12 Dec - 15:42:54 10° SW 15:49:12 60° WNW 15:55:29 10° N daylight
13 Dec - 05:00:24 10° N 05:06:05 49° ENE 05:11:58 10° SE visible
13 Dec - 06:47:47 10° WNW 06:52:42 25° SW 06:57:45 10° S daylight
13 Dec - 14:06:17 10° S 14:12:02 33° SE 14:17:45 10° ENE daylight
13 Dec - 15:52:31 10° SW 15:58:26 39° WNW 16:04:17 10° N daylight
14 Dec - 05:09:23 10° NNW 05:15:19 76° ENE 05:21:29 10° SSE visible
14 Dec - 06:58:23 10° W 07:02:22 18° SW 07:06:27 10° S daylight
14 Dec - 14:15:20 10° SSW 14:21:33 48° ESE 14:27:42 10° NE daylight
14 Dec - 16:02:26 10° SW 16:07:34 26° WNW 16:12:40 10° NNW daylight
15 Dec - 03:35:58 10° NE 03:39:04 15° ENE 03:42:13 10° ESE visible
15 Dec - 05:18:42 10° NNW 05:24:38 72° WSW 05:30:50 10° SSE visible
15 Dec - 07:09:45 10° WSW 07:12:10 12° SW 07:14:36 10° SSW daylight
15 Dec - 12:40:36 10° SSE 12:43:27 13° SE 12:46:19 10° ESE daylight
15 Dec - 14:24:31 10° SSW 14:30:58 72° ESE 14:37:21 10° NNE daylight
15 Dec - 16:12:51 10° WSW 16:16:38 16° WNW 16:20:23 10° NW daylight
